Simultaneous Nadir Overpasses (SNOs) Predictions

Prediction of SNOs between METOP-B and TERRA Satellite Orbit:

Table of predicted SNOs for the next 14.0 days since TLE Epoch: 5/27/2023
Index Date (METOP-B) Time (METOP-B) Lat,Lon (METOP-B) SZA (METOP-B ) Date (TERRA) Time (TERRA) Lat,Lon (TERRA) SZA (TERRA ) Distance(km) Time Diff (sec)
1 05/27/2023 23:20:06 80.86,-136.82 61.10 05/27/2023 23:20:32 80.86,-136.94 61.10 2.12 26
2 05/28/2023 00:10:45 -80.90, 31.22 118.81 05/28/2023 00:09:53 -80.90, 31.11 118.85 2.05 52
3 05/30/2023 14:41:06 -80.84, 172.55 119.37 05/30/2023 14:42:04 -80.84, 172.37 119.37 3.15 58
4 05/30/2023 15:31:45 80.87, -19.59 60.70 05/30/2023 15:31:25 80.87, -19.58 60.69 0.21 20
5 06/02/2023 06:52:44 -80.85, -70.24 119.73 06/02/2023 06:52:56 -80.84, -70.35 119.75 2.22 12
6 06/02/2023 07:43:22 80.90, 97.95 60.38 06/02/2023 07:42:16 80.90, 97.99 60.36 0.65 66
7 06/04/2023 22:13:44 80.81,-121.19 59.84 06/04/2023 22:14:27 80.81,-121.07 59.87 2.17 43
8 06/04/2023 23:04:21 -80.89, 47.63 119.96 06/04/2023 23:03:47 -80.89, 47.46 120.00 3.03 34
9 06/07/2023 13:35:05 -80.29,-178.84 121.52 06/07/2023 13:36:19 -80.12,-178.24 121.60 21.48 74



Historial Predications of SNOs between METOP-B and TERRA
